User: anonymous   Login
Location: Unspecified
(0.0000°N, 0.0000°E)
Time: 11:22:10
(UTC+00:00)
Language:

SAR-Lupe-2 - Orbit

View from above orbital plane
View from above orbital plane
View from above satellite
View from above satellite

Ground track
Ground track

The orbit data is extracted from the following two-line orbital elements,

1 31797U 07030A   18230.09291341 0.00000700  00000-0  25897-4 0    05
2 31797  98.1846  24.9691 0002000 159.6747 200.3252 15.27718183    04
Epoch (UTC): 18 August 2018 02:13:47
Eccentricity: 0.0002000
inclination: 98.1846°
perigee height: 481 km
apogee height: 484 km
right ascension of ascending node: 24.9691°
argument of perigee: 159.6747°
revolutions per day: 15.27718183
mean anomaly at epoch: 200.3252°
orbit number at epoch: 0

The dashed part of the orbit path shows where the satellite is in the earth's shadow,  

DLR